This demonstration page uses our WeatherBlox Daily Observations layout. Learn more.

Left ArrowRight Arrow

31.84235, -102.49876

Hourly Observations for June 1, 2015

Temp ( °F °C ) Dew Point ( °F °C ) Humidity (%) Winds ( mph kmh ) Pressure ( in mb ) Visibility ( mi km ) Precip ( " mm )
12:53 am 00:53 Clear 69 20.6 58 14.4 68 68 SSE 10 17 29.98 1015 10 16 0.00 0.00
1:53 am 01:53 Clear 68 20 59 15 73 73 S 9 15 29.98 1015 10 16 0.00 0.00
2:53 am 02:53 Clear 67 19.4 59 15 76 76 S 6 9 29.97 1015 10 16 0.00 0.00
3:53 am 03:53 Clear 65 18.3 60 15.6 84 84 SSE 7 11 29.97 1015 10 16 0.00 0.00
4:53 am 04:53 Clear 63 17.2 59 15 87 87 SE 7 11 29.98 1015 10 16 0.00 0.00
5:53 am 05:53 Mostly Clear 63 17.2 59 15 87 87 SSE 8 13 29.97 1015 10 16 0.00 0.00
6:53 am 06:53 Sunny 64 17.8 60 15.6 87 87 S 12 19 29.98 1015 8 13 0.00 0.00
7:53 am 07:53 Sunny 65 18.3 61 16.1 87 87 S 10 17 29.98 1015 7 11 0.00 0.00
8:53 am 08:53 undefined 68 20 61 16.1 78 78 S 12 19 29.99 1016 10 16 0.00 0.00
9:53 am 09:53 Sunny 72 22.2 62 16.7 71 71 S 10 17 29.99 1016 10 16 0.00 0.00
10:53 am 10:53 Sunny 76 24.4 61 16.1 60 60 S 12 19 29.98 1015 10 16 0.00 0.00
11:53 am 11:53 Sunny 80 26.7 61 16.1 52 52 S 10 17 29.98 1015 10 16 0.00 0.00
12:53 pm 12:53 Sunny 84 28.9 58 14.4 41 41 S 9 15 29.96 1015 10 16 0.00 0.00
1:53 pm 13:53 Sunny 86 30 54 12.2 33 33 S 10 17 29.95 1014 10 16 0.00 0.00
2:53 pm 14:53 Sunny 88 31.1 55 12.8 33 33 S 13 20 29.93 1013 10 16 0.00 0.00
3:53 pm 15:53 Sunny 89 31.7 51 10.6 27 27 S 15 24 29.91 1013 10 16 0.00 0.00
4:53 pm 16:53 Sunny 89 31.7 49 9.4 25 25 SSE 16 26 29.89 1012 10 16 0.00 0.00
5:53 pm 17:53 Sunny 89 31.7 50 10 26 26 SE 17 28 29.88 1012 10 16 0.00 0.00
6:53 pm 18:53 Sunny 87 30.6 52 11.1 30 30 SSE 18 30 29.87 1012 10 16 0.00 0.00
7:53 pm 19:53 Sunny 85 29.4 51 10.6 31 31 S 17 28 29.87 1012 10 16 0.00 0.00
8:53 pm 20:53 Clear 81 27.2 54 12.2 39 39 S 12 19 29.89 1012 10 16 0.00 0.00
9:53 pm 21:53 Clear 78 25.6 55 12.8 45 45 SSE 10 17 29.89 1012 10 16 0.00 0.00
10:53 pm 22:53 Clear 76 24.4 57 13.9 52 52 SSE 13 20 29.92 1013 10 16 0.00 0.00
11:53 pm 23:53 Clear 74 23.3 57 13.9 56 56 S 10 17 29.94 1014 10 16 0.00 0.00

Powered by AerisWeather